Location: Étouvelles
(49.5207°N, 3.5808°E)
Time: 19:19:43
(UTC+00:00)

S3M - Pass Details

Date: 03 February 2023
Orbit: 948 x 1005 km, 83.0° (Epoch: 26 March)

Event Time Altitude Azimuth Distance (km) Brightness Sun altitude
Rises 18:28:38 0° 167° (SSE) 3,719 7.0 -17.1°
Reaches altitude 10° 18:31:15 10° 162° (SSE) 2,774 6.2 -17.5°
Maximum altitude 18:37:18 48° 90° (E) 1,298 4.2 -18.5°
Drops below altitude 10° 18:43:23 10° 19° (NNE) 2,781 6.2 -19.5°
Sets 18:45:59 0° 14° (NNE) 3,728 6.9 -19.9°
